• Em Portugal
  • Lista de países
  • Para 7 dias
  • Temperatura da água
  • Mapas de satélite
  • Mapa do tempo
  • Widgets de tempo
  • user-avatar
    Iniciar Sessão

    Previsão horária em Sinemorec

    Hoje, 18 Outubro, Quinta-feira

    Tempo Temperatura Precipitação Vento Pressão Humidade
    00:00 +17°C° 0.5 mm 3 m/s 761 mmHg 93%
    01:00 +17°C° 0.5 mm 3 m/s 761 mmHg 94%
    02:00 +17°C° 0.5 mm 3 m/s 761 mmHg 95%
    03:00 +17°C° 0.6 mm 3 m/s 761 mmHg 95%
    04:00 +17°C° 0.6 mm 3 m/s 760 mmHg 95%
    05:00 +17°C° 0.6 mm 3 m/s 760 mmHg 96%
    06:00 +17°C° 0.1 mm 3 m/s 760 mmHg 94%
    07:00 +17°C° 0.1 mm 3 m/s 760 mmHg 93%
    08:00 +17°C° 0.1 mm 3 m/s 760 mmHg 91%
    09:00 +18°C° 0.2 mm 3 m/s 760 mmHg 87%
    10:00 +19°C° 0.2 mm 3 m/s 760 mmHg 83%
    11:00 +20°C° 0.2 mm 3 m/s 760 mmHg 79%
    12:00 +20°C° 0.3 mm 3 m/s 760 mmHg 75%
    13:00 +21°C° 0.3 mm 3 m/s 760 mmHg 72%
    14:00 +22°C° 0.3 mm 3 m/s 760 mmHg 68%
    15:00 +21°C° 0.1 mm 3 m/s 759 mmHg 73%
    16:00 +20°C° 0.1 mm 3 m/s 759 mmHg 77%
    17:00 +19°C° 0.1 mm 3 m/s 759 mmHg 81%
    18:00 +18°C° 0 mm 2 m/s 759 mmHg 85%
    19:00 +17°C° 0 mm 2 m/s 760 mmHg 89%
    20:00 +16°C° 0 mm 2 m/s 760 mmHg 93%
    21:00 +16°C° 0 mm 2 m/s 760 mmHg 93%
    22:00 +16°C° 0 mm 2 m/s 760 mmHg 93%
    23:00 +16°C° 0 mm 2 m/s 760 mmHg 94%

    Amanhã, 19 Outubro, Sexta-feira

    Tempo Temperatura Precipitação Vento Pressão Humidade
    00:00 +16°C° 0 mm 2 m/s 760 mmHg 94%
    01:00 +16°C° 0 mm 2 m/s 760 mmHg 94%
    02:00 +15°C° 0 mm 2 m/s 760 mmHg 94%
    03:00 +15°C° 0 mm 2 m/s 760 mmHg 94%
    04:00 +15°C° 0 mm 2 m/s 760 mmHg 95%
    05:00 +15°C° 0 mm 2 m/s 760 mmHg 95%
    06:00 +16°C° 0 mm 2 m/s 760 mmHg 93%
    07:00 +16°C° 0 mm 2 m/s 760 mmHg 90%
    08:00 +17°C° 0 mm 2 m/s 760 mmHg 88%
    09:00 +19°C° 0 mm 2 m/s 760 mmHg 81%
    10:00 +21°C° 0 mm 2 m/s 760 mmHg 73%
    11:00 +23°C° 0 mm 2 m/s 760 mmHg 66%
    12:00 +24°C° 0 mm 2 m/s 760 mmHg 63%
    13:00 +24°C° 0 mm 2 m/s 760 mmHg 60%
    14:00 +25°C° 0 mm 2 m/s 760 mmHg 58%
    15:00 +24°C° 0 mm 2 m/s 759 mmHg 64%
    16:00 +23°C° 0 mm 2 m/s 759 mmHg 69%
    17:00 +20°C° 0 mm 2 m/s 759 mmHg 75%
    18:00 +19°C° 0 mm 2 m/s 760 mmHg 80%
    19:00 +19°C° 0 mm 1 m/s 760 mmHg 85%
    20:00 +18°C° 0 mm 1 m/s 760 mmHg 91%
    21:00 +18°C° 0 mm 1 m/s 760 mmHg 90%
    22:00 +18°C° 0 mm 1 m/s 760 mmHg 89%
    23:00 +18°C° 0 mm 1 m/s 760 mmHg 88%

    Depois de amanhã, 20 Outubro, Sábado

    Tempo Temperatura Precipitação Vento Pressão Humidade
    00:00 +16°C° 0 mm 2 m/s 760 mmHg 87%
    01:00 +16°C° 0 mm 2 m/s 760 mmHg 87%
    02:00 +16°C° 0 mm 2 m/s 761 mmHg 86%
    03:00 +16°C° 0 mm 2 m/s 760 mmHg 86%
    04:00 +16°C° 0 mm 2 m/s 760 mmHg 86%
    05:00 +14°C° 0 mm 3 m/s 760 mmHg 86%
    06:00 +16°C° 0 mm 3 m/s 761 mmHg 83%
    07:00 +17°C° 0 mm 3 m/s 761 mmHg 80%
    08:00 +18°C° 0 mm 3 m/s 761 mmHg 76%
    09:00 +19°C° 0 mm 4 m/s 761 mmHg 71%
    10:00 +20°C° 0 mm 4 m/s 761 mmHg 65%
    11:00 +21°C° 0 mm 4 m/s 761 mmHg 59%
    12:00 +21°C° 0 mm 4 m/s 761 mmHg 58%
    13:00 +22°C° 0 mm 5 m/s 761 mmHg 57%
    14:00 +22°C° 0 mm 5 m/s 761 mmHg 55%
    15:00 +21°C° 0 mm 5 m/s 761 mmHg 58%
    16:00 +20°C° 0 mm 5 m/s 761 mmHg 60%
    17:00 +19°C° 0 mm 5 m/s 761 mmHg 62%
    18:00 +18°C° 0 mm 4 m/s 761 mmHg 64%
    19:00 +18°C° 0 mm 4 m/s 761 mmHg 65%
    20:00 +17°C° 0 mm 4 m/s 761 mmHg 67%
    21:00 +17°C° 0 mm 4 m/s 761 mmHg 67%
    22:00 +17°C° 0 mm 4 m/s 761 mmHg 67%
    23:00 +17°C° 0 mm 4 m/s 761 mmHg 67%

    21 Outubro, Domingo

    Tempo Temperatura Precipitação Vento Pressão Humidade
    00:00 +16°C° 0 mm 5 m/s 761 mmHg 68%
    01:00 +16°C° 0 mm 5 m/s 761 mmHg 68%
    02:00 +15°C° 0 mm 6 m/s 761 mmHg 68%
    03:00 +15°C° 0 mm 6 m/s 761 mmHg 70%
    04:00 +15°C° 0 mm 6 m/s 761 mmHg 71%
    05:00 +15°C° 0 mm 7 m/s 761 mmHg 73%
    06:00 +15°C° 0 mm 7 m/s 762 mmHg 73%
    07:00 +15°C° 0 mm 8 m/s 762 mmHg 74%
    08:00 +15°C° 0 mm 8 m/s 762 mmHg 74%
    09:00 +16°C° 0 mm 8 m/s 762 mmHg 71%
    10:00 +17°C° 0 mm 9 m/s 762 mmHg 68%
    11:00 +18°C° 0 mm 9 m/s 762 mmHg 65%
    12:00 +18°C° 0.1 mm 9 m/s 762 mmHg 64%
    13:00 +18°C° 0.1 mm 9 m/s 762 mmHg 63%
    14:00 +18°C° 0.1 mm 8 m/s 761 mmHg 62%
    15:00 +18°C° 0 mm 8 m/s 761 mmHg 65%
    16:00 +17°C° 0 mm 8 m/s 761 mmHg 68%
    17:00 +16°C° 0 mm 7 m/s 761 mmHg 71%
    18:00 +15°C° 0 mm 7 m/s 761 mmHg 74%
    19:00 +15°C° 0 mm 6 m/s 761 mmHg 78%
    20:00 +14°C° 0 mm 6 m/s 762 mmHg 81%
    21:00 +14°C° 0 mm 6 m/s 761 mmHg 80%
    22:00 +14°C° 0 mm 5 m/s 761 mmHg 78%
    23:00 +14°C° 0 mm 5 m/s 761 mmHg 77%

    22 Outubro, Segunda-feira

    Tempo Temperatura Precipitação Vento Pressão Humidade
    00:00 +13°C° 0 mm 5 m/s 761 mmHg 77%
    01:00 +13°C° 0 mm 5 m/s 760 mmHg 77%
    02:00 +13°C° 0 mm 5 m/s 760 mmHg 77%
    03:00 +11°C° 0.4 mm 6 m/s 760 mmHg 80%
    04:00 +11°C° 0.4 mm 7 m/s 760 mmHg 82%
    05:00 +10°C° 0.4 mm 7 m/s 760 mmHg 85%
    06:00 +10°C° 0.9 mm 7 m/s 760 mmHg 87%
    07:00 +9°C° 0.9 mm 7 m/s 760 mmHg 89%
    08:00 +9°C° 0.9 mm 7 m/s 760 mmHg 90%
    09:00 +9°C° 0.9 mm 7 m/s 760 mmHg 90%
    10:00 +9°C° 0.9 mm 7 m/s 760 mmHg 90%
    11:00 +9°C° 0.9 mm 7 m/s 760 mmHg 89%
    12:00 +9°C° 1.1 mm 7 m/s 760 mmHg 89%
    13:00 +9°C° 1.1 mm 8 m/s 760 mmHg 89%
    14:00 +9°C° 1.1 mm 8 m/s 759 mmHg 89%
    15:00 +9°C° 1.2 mm 8 m/s 759 mmHg 89%
    16:00 +9°C° 1.2 mm 8 m/s 759 mmHg 88%
    17:00 +9°C° 1.2 mm 8 m/s 759 mmHg 88%
    18:00 +9°C° 1.4 mm 8 m/s 759 mmHg 87%
    19:00 +9°C° 1.4 mm 8 m/s 759 mmHg 87%
    20:00 +9°C° 1.4 mm 8 m/s 760 mmHg 86%
    21:00 +9°C° 2.6 mm 8 m/s 759 mmHg 87%
    22:00 +9°C° 2.6 mm 8 m/s 759 mmHg 87%
    23:00 +9°C° 2.6 mm 7 m/s 759 mmHg 88%

    23 Outubro, Terça-feira

    Tempo Temperatura Precipitação Vento Pressão Humidade
    00:00 +10°C° 2.5 mm 7 m/s 759 mmHg 88%
    01:00 +10°C° 2.5 mm 7 m/s 758 mmHg 89%
    02:00 +10°C° 2.5 mm 7 m/s 758 mmHg 90%
    03:00 +10°C° 1.5 mm 7 m/s 758 mmHg 90%
    04:00 +10°C° 1.5 mm 8 m/s 758 mmHg 90%
    05:00 +10°C° 1.5 mm 8 m/s 758 mmHg 91%
    06:00 +10°C° 1.1 mm 8 m/s 758 mmHg 90%
    07:00 +8°C° 1.1 mm 9 m/s 758 mmHg 89%
    08:00 +8°C° 1.1 mm 9 m/s 758 mmHg 88%
    09:00 +8°C° 0.6 mm 9 m/s 758 mmHg 88%
    10:00 +10°C° 0.6 mm 9 m/s 758 mmHg 87%
    11:00 +10°C° 0.6 mm 8 m/s 757 mmHg 86%
    12:00 +10°C° 0.5 mm 8 m/s 757 mmHg 85%
    13:00 +10°C° 0.5 mm 8 m/s 756 mmHg 84%
    14:00 +10°C° 0.5 mm 8 m/s 756 mmHg 84%
    15:00 +11°C° 0.3 mm 8 m/s 756 mmHg 84%
    16:00 +11°C° 0.3 mm 8 m/s 755 mmHg 84%
    17:00 +11°C° 0.3 mm 8 m/s 755 mmHg 85%
    18:00 +11°C° 0.2 mm 8 m/s 755 mmHg 85%
    19:00 +11°C° 0.2 mm 8 m/s 755 mmHg 86%
    20:00 +12°C° 0.2 mm 8 m/s 755 mmHg 87%
    21:00 +12°C° 0.1 mm 8 m/s 755 mmHg 86%
    22:00 +12°C° 0.1 mm 8 m/s 754 mmHg 86%
    23:00 +12°C° 0.1 mm 8 m/s 754 mmHg 86%
    Mostrar mais